Terug naar catalogus

OPS 0757

TACSAT

ActiefMilitairGEO
NORAD 3691·PAYLOAD·🇺🇸 United States

Gelanceerd Feb 9, 1969 vanaf Cape Canaveral Space Force Station

Loading…

TLE

VersSource: Space-Track

Epoch: Sep 14, 2026, 14:00 UTC

1 03691U 69013A   26257.58368105  .00000121  00000-0  00000-0 0  9990
2 03691   3.0700  73.6766 0022075 174.8944 358.1641  1.00438107115008

Volg OPS 0757 in realtime met AllMySat

Download on the App Store